Flag for Austria Weather past 2 weeks in Götzis, Vorarlberg, Austria

Now
30 °F

Passing clouds.


Feels Like: 30 °F
Forecast: 26 / 39 °F
Wind: 2 mph from Southeast

Location: Saint Gallen-Altenrhein

Current Time: Dec 26, 2014 at 10:36:08 PM

Latest Report: Dec 26, 2014 at 9:50 PM


Visibility: 4 mi

Pressure: 30.27 "Hg

Humidity: 100%

Dew point: 30 °F

Location of GötzisLocation

Historic Weather in Götzis — Graph

°F

Götzis temperature yesterday

Maximum temperature yesterday: 48 °F (at 7:20 AM)
Minimum temperature yesterday: 36 °F (at 12:20 AM)
Average temperature yesterday: 42 °F

Past Weeks' High & Low Weather Summary

 TemperatureHumidityPressure
High54 °F (Dec 19, 11:20 AM)100% (Dec 15, 4:50 PM)30.54 "Hg (Dec 15, 4:50 PM)
Low28 °F (Dec 22, 5:20 AM)32% (Dec 12, 8:50 PM)29.80 "Hg (Dec 12, 9:20 PM)
Average41 °F83%30.17 "Hg
* Reported Dec 11 9:20 PM — Dec 26 9:20 PM, Götzis, Weather by CustomWeather, © 2014

Note: Actual official high and low records may vary slightly from our data, if they occured in-between our weather recording intervals... More about our weather records

Advertising

Götzis weather history for previous 24 hours

 ConditionsComfort  
Time TempWeatherWind HumidityBarometerVisibility
9:20 PM
Dec 26
30 °FPassing clouds.2 mph100%30.30 "Hg4 mi
8:50 PM30 °FPartly cloudy.3 mph100%30.30 "Hg3 mi
8:20 PM30 °FMostly cloudy.3 mph100%30.33 "Hg3 mi
7:50 PM32 °FPartly cloudy.7 mph100%30.33 "Hg5 mi
7:20 PM32 °FPartly cloudy.5 mph100%30.33 "Hg5 mi
6:50 PM34 °FPartly cloudy.1 mph93%30.33 "Hg5 mi
6:20 PM32 °FPartly cloudy.2 mph100%30.33 "Hg5 mi
5:50 PM32 °FPartly cloudy.7 mph100%30.36 "HgN/A
5:20 PM32 °FPartly cloudy.6 mph100%30.36 "HgN/A
4:50 PM32 °FSnow showers. Dense fog.5 mph100%30.36 "Hg1 mi
4:20 PM32 °FSnow showers. Dense fog.7 mph100%30.36 "Hg1 mi
3:50 PM32 °FSnow showers. Broken clouds.8 mph100%30.36 "Hg1 mi
3:20 PM34 °FScattered showers. Broken clouds.5 mph93%30.36 "HgN/A
2:50 PM34 °FScattered showers. Broken clouds.5 mph93%30.36 "HgN/A
2:20 PM32 °FLight snow. Broken clouds.3 mph100%30.39 "Hg3 mi
1:50 PM34 °FBroken clouds.2 mph93%30.39 "HgN/A
1:20 PM34 °FBroken clouds.2 mph93%30.39 "HgN/A
12:50 PM34 °FSprinkles. Broken clouds.5 mph93%30.39 "HgN/A
12:20 PM36 °FSprinkles. Broken clouds.16 mph87%30.39 "HgN/A
11:50 AM37 °FScattered showers. Broken clouds.12 mph81%30.39 "HgN/A
11:20 AM39 °FScattered showers. Broken clouds.12 mph75%30.39 "HgN/A
10:50 AM37 °FDrizzle. Broken clouds.9 mph75%30.39 "HgN/A
10:20 AM39 °FDrizzle. Broken clouds.9 mph70%30.39 "HgN/A
9:50 AM39 °FBroken clouds.7 mph70%30.39 "HgN/A
9:20 AM39 °FBroken clouds.9 mph70%30.39 "HgN/A
8:50 AM37 °FOvercast.10 mph75%30.36 "HgN/A
8:20 AM37 °FBroken clouds.10 mph75%30.36 "HgN/A
7:50 AM37 °FPartly cloudy.9 mph81%30.36 "HgN/A
7:20 AM37 °FPartly cloudy.10 mph75%30.36 "HgN/A
6:50 AM37 °FOvercast.10 mph75%30.36 "HgN/A
6:20 AM39 °FOvercast.7 mph65%30.36 "HgN/A
5:50 AM39 °FOvercast.7 mph65%30.36 "HgN/A
5:20 AM39 °FOvercast.3 mph65%30.36 "HgN/A
4:50 AM39 °FOvercast.8 mph65%30.36 "HgN/A
3:50 AM37 °FPassing clouds.7 mph75%30.39 "HgN/A
3:20 AM39 °FOvercast.9 mph70%30.39 "HgN/A
2:50 AM39 °FPartly cloudy.9 mph70%30.39 "HgN/A
2:20 AM39 °FPassing clouds.6 mph70%30.39 "HgN/A
1:50 AM39 °FOvercast.8 mph70%30.36 "HgN/A
1:20 AM39 °FPartly cloudy.7 mph70%30.36 "HgN/A
12:50 AM39 °FOvercast.7 mph65%30.39 "HgN/A
12:20 AM39 °FOvercast.8 mph70%30.36 "HgN/A
11:50 PM
Dec 25
39 °FPartly cloudy.8 mph70%30.39 "HgN/A
11:20 PM39 °FPartly cloudy.3 mph75%30.39 "HgN/A
10:50 PM37 °FPartly cloudy.6 mph75%30.39 "HgN/A
10:20 PM39 °FMostly cloudy.5 mph65%30.39 "HgN/A
Weather by CustomWeather, © 2014

See weather overviewHow to use our weather pages